Flag for Germany Weather past 2 weeks in Berlin, Berlin, Germany

Now
44 °F

Quite cool.


Feels Like: 44 °F
Forecast: 49 / 65 °F
Wind: 1 mph from Northeast

Location: Berlin-Tempelhof

Current Time: May 24, 2015 at 5:50:45 AM

Latest Report: May 24, 2015 at 5:00 AM


Visibility: N/A

Pressure: 30.14 "Hg

Humidity: 93%

Dew point: 42 °F

Location of BerlinLocation

Historic Weather in Berlin — Graph

°F

Berlin temperature yesterday

Maximum temperature yesterday: 69 °F (at 2:00 PM)
Minimum temperature yesterday: 54 °F (at 11:00 PM)
Average temperature yesterday: 61 °F

Past Weeks' High & Low Weather Summary

 TemperatureHumidityPressure
High81 °F (May 12, 4:00 PM)96% (May 15, 6:00 AM)30.40 "Hg (May 15, 6:00 AM)
Low40 °F (May 11, 4:00 AM)27% (May 11, 5:00 PM)29.59 "Hg (May 19, 4:00 AM)
Average56 °F61%30.05 "Hg
* Reported May 9 4:00 AM — May 24 4:00 AM, Berlin, Weather by CustomWeather, © 2015

Note: Actual official high and low records may vary slightly from our data, if they occured in-between our weather recording intervals... More about our weather records

Advertising

Berlin weather history for previous 24 hours

 ConditionsComfort  
Time TempWeatherWind HumidityBarometerVisibility
4:00 AM
Sun, May 24
45 °FQuite cool.1 mph89%30.14 "HgN/A
3:00 AM46 °FCool.1 mph85%30.14 "HgN/A
2:00 AM47 °FCool.2 mph81%30.14 "HgN/A
1:00 AM49 °FCool.3 mph84%30.14 "HgN/A
12:00 AM52 °FCool.3 mph80%30.13 "HgN/A
11:00 PM
Sat, May 23
54 °FCool.5 mph83%30.13 "HgN/A
10:00 PM56 °FCool.6 mph78%30.12 "HgN/A
9:00 PM58 °FCool.6 mph73%30.10 "HgN/A
8:00 PM60 °FCool.6 mph71%30.09 "HgN/A
7:00 PM63 °FMild.6 mph66%30.07 "HgN/A
6:00 PM63 °FMild.7 mph66%30.07 "HgN/A
5:00 PM67 °FMild.7 mph56%30.07 "HgN/A
4:00 PM66 °FMild.5 mph54%30.07 "HgN/A
3:00 PM65 °FMild.7 mph55%30.07 "HgN/A
2:00 PM69 °FMild.5 mph46%30.07 "HgN/A
1:00 PM66 °FMild.3 mph54%30.09 "HgN/A
12:00 PM64 °FMild.5 mph58%30.11 "HgN/A
11:00 AM65 °FMild.6 mph56%30.11 "HgN/A
10:00 AM66 °FMild.3 mph53%30.11 "HgN/A
9:00 AM64 °FMild.3 mph54%30.11 "HgN/A
8:00 AM61 °FCool.2 mph60%30.11 "HgN/A
7:00 AM58 °FCool.1 mph65%30.11 "HgN/A
5:00 AM57 °FCool.2 mph63%30.12 "HgN/A
Weather by CustomWeather, © 2015

See weather overviewHow to use our weather pages